Weather History for KBAF - December, 2012

Change the Weather History Date:

Saturday, December 1, 2012

  Actual Average Record
Temperature  
Mean Temperature 28 °F -  
Max Temperature 30 °F 42 °F 66 °F (2001)
Min Temperature 26 °F 24 °F 18 °F (1973)
Degree Days  
Heating Degree Days 37    
Moisture  
Dew Point 23 °F    
Average Humidity 79    
Maximum Humidity 93    
Minimum Humidity 30    
Precipitation  
Precipitation 0.00 in - - ()
Sea Level Pressure  
Sea Level Pressure 30.56 in    
Wind  
Wind Speed 7 mph (North)    
Max Wind Speed 10 mph    
Max Gust Speed -    
Visibility 5 miles    
Events Rain , Snow    
Averages and records for this station are not official NWS values.
T = Trace of Precipitation, MM = Missing Value Source: NWS Daily Summary

Daily Weather History Graph

Daily Weather History Graph

Search for Another Location

Airport or City:

Trip Planner

Search our weather history database for the weather conditions in past years. The results will help you decide how hot, cold, wet, or windy it might be!

Date:

Astronomy

Dec. 01, 2012 Rise Set
Actual Time 7:00 AM EST 4:19 PM EST
Civil Twilight 6:29 AM EST 4:50 PM EST
Nautical Twilight 5:54 AM EST 5:25 PM EST
Astronomical Twilight 5:20 AM EST 5:59 PM EST
Moon 7:07 PM EST (12/1) 9:10 AM EST (12/1)
Length of Visible Light 10h 21m
Length of Day
9h 19m
Waning Gibbous, 92% of the Moon is Illuminated
Dec 1
Waning Gibbous
Dec 6
Last Quarter
Dec 13
New
Dec 20
First Quarter
Dec 28
Full

Hourly Weather History & Observations

Time (EST) Temp. Windchill Dew Point Humidity Pressure Visibility Wind Dir Wind Speed Gust Speed Precip Events Conditions
12:53 AM 30.0 °F 22.4 °F 1.9 °F 30% 30.55 in 10.0 mi NNE 8.1 mph - N/A   Overcast
1:53 AM 30.0 °F 24.1 °F 6.1 °F 36% 30.57 in 10.0 mi NNE 5.8 mph - N/A   Overcast
2:53 AM 28.0 °F 21.7 °F 17.1 °F 63% 30.58 in 5.0 mi ENE 5.8 mph - 0.00 in Snow Light Snow
3:53 AM 27.0 °F 19.5 °F 18.0 °F 69% 30.56 in 5.0 mi North 6.9 mph - 0.00 in Snow Light Snow
4:53 AM 27.0 °F 19.5 °F 19.9 °F 75% 30.56 in 10.0 mi North 6.9 mph - 0.00 in   Overcast
5:33 AM 26.6 °F 21.2 °F 21.2 °F 80% 30.54 in 10.0 mi NNE 4.6 mph - N/A   Overcast
5:53 AM 27.0 °F 18.7 °F 19.9 °F 75% 30.58 in 10.0 mi North 8.1 mph - N/A   Overcast
6:53 AM 27.0 °F 17.3 °F 19.9 °F 75% 30.61 in 8.0 mi North 10.4 mph - 0.00 in Snow Light Snow
7:53 AM 27.0 °F 18.7 °F 21.0 °F 78% 30.61 in 7.0 mi North 8.1 mph - 0.00 in Snow Light Snow
8:20 AM 26.6 °F 18.2 °F 21.2 °F 80% 30.59 in 2.0 mi North 8.1 mph - 0.00 in Snow Light Snow
8:53 AM 27.0 °F 17.3 °F 21.9 °F 81% 30.63 in 2.0 mi North 10.4 mph - 0.00 in Snow Light Snow
9:53 AM 27.0 °F 18.7 °F 21.9 °F 81% 30.63 in 2.0 mi North 8.1 mph - 0.00 in Snow Light Snow
9:59 AM 26.6 °F 19.1 °F 21.2 °F 80% 30.60 in 1.8 mi North 6.9 mph - 0.00 in Snow Light Snow
10:34 AM 28.4 °F 20.4 °F 21.2 °F 74% 30.59 in 3.0 mi North 8.1 mph - 0.00 in Snow Light Snow
10:53 AM 28.0 °F 18.6 °F 21.9 °F 78% 30.61 in 2.5 mi North 10.4 mph - 0.00 in Snow Light Snow
11:53 AM 28.9 °F 21.1 °F 23.0 °F 78% 30.58 in 2.5 mi North 8.1 mph - 0.00 in   Haze
12:00 PM 28.4 °F 20.4 °F 23.0 °F 80% 30.56 in 10.0 mi North 8.1 mph - N/A   Overcast
12:53 PM 28.9 °F 22.8 °F 23.0 °F 78% 30.57 in 10.0 mi North 5.8 mph - N/A   Overcast
1:53 PM 30.0 °F 23.2 °F 23.0 °F 75% 30.55 in 8.0 mi North 6.9 mph - N/A   Overcast
2:09 PM 28.4 °F 21.2 °F 24.8 °F 86% 30.53 in 4.0 mi North 6.9 mph - N/A   Haze
2:45 PM 28.4 °F 21.2 °F 24.8 °F 86% 30.53 in 5.0 mi North 6.9 mph - N/A   Overcast
2:53 PM 28.9 °F 21.9 °F 25.0 °F 85% 30.56 in 7.0 mi North 6.9 mph - N/A   Overcast
3:53 PM 28.9 °F 21.1 °F 25.0 °F 85% 30.56 in 10.0 mi North 8.1 mph - N/A   Overcast
4:53 PM 28.9 °F 21.9 °F 26.1 °F 89% 30.56 in 2.5 mi NNE 6.9 mph - N/A   Overcast
5:53 PM 30.0 °F 24.1 °F 26.1 °F 85% 30.56 in 2.0 mi NNE 5.8 mph - N/A   Overcast
6:10 PM 30.2 °F 23.4 °F 26.6 °F 86% 30.53 in 2.5 mi North 6.9 mph - N/A   Overcast
6:37 PM 30.2 °F 22.6 °F 26.6 °F 86% 30.53 in 3.0 mi NNE 8.1 mph - N/A   Overcast
6:53 PM 30.0 °F 23.2 °F 27.0 °F 88% 30.56 in 2.0 mi North 6.9 mph - N/A   Overcast
7:53 PM 30.0 °F 23.2 °F 27.0 °F 88% 30.56 in 2.0 mi North 6.9 mph - N/A   Overcast
8:53 PM 30.0 °F 24.1 °F 27.0 °F 88% 30.54 in 2.0 mi North 5.8 mph - N/A   Overcast
9:53 PM 30.9 °F 25.2 °F 28.0 °F 89% 30.52 in 2.0 mi North 5.8 mph - N/A   Overcast
10:00 PM 30.2 °F 24.3 °F 28.4 °F 93% 30.50 in 4.0 mi North 5.8 mph - N/A   Overcast
10:53 PM 30.9 °F 24.3 °F 28.0 °F 89% 30.51 in 3.0 mi North 6.9 mph - N/A   Overcast
11:28 PM 30.2 °F 25.4 °F 28.4 °F 93% 30.49 in 2.5 mi North 4.6 mph - N/A   Overcast
11:53 PM 30.9 °F 26.2 °F 28.0 °F 89% 30.50 in 2.5 mi North 4.6 mph - 0.00 in Rain Light Freezing Rain